This demonstration page uses our WeatherBlox Daily Observations layout. Learn more.

Left ArrowRight Arrow

39.08367, -84.50855

Hourly Observations for April 27, 2017

Temp ( °F °C ) Dew Point ( °F °C ) Humidity (%) Winds ( mph kmh ) Pressure ( in mb ) Visibility ( mi km ) Precip ( " mm )
12:53 am 00:53 Clear 61 16.1 58 14.4 90 90 Calm 29.58 1002 10 16.0934 0 0
1:53 am 01:53 Clear 60 15.6 56 13.3 86 86 W 3 6 29.58 1002 10 16.0934 0 0
2:53 am 02:53 Clear 64 17.8 56 13.3 75 75 SSW 3 6 29.58 1002 10 16.0934 0 0
3:53 am 03:53 Clear 65 18.3 57 13.9 76 76 S 3 6 29.56 1001 10 16.0934 0 0
4:53 am 04:53 Cloudy 67 19.4 60 15.6 79 79 SW 9 15 29.57 1002 10 16.0934 0 0
5:53 am 05:53 Mostly Clear 66 18.9 54 12.2 65 65 SSW 10 17 29.58 1002 10 16.0934 0 0
6:53 am 06:53 Mostly Cloudy 67 19.4 54 12.2 63 63 SE 6 9 29.54 1001 10 16.0934 0 0
7:53 am 07:53 Mostly Cloudy 64 17.8 57 13.9 78 78 S 5 7 29.57 1001 10 16.0934 0 0
8:53 am 08:53 Cloudy 68 20 59 15 73 73 Calm 29.57 1001 10 16.0934 0 0
9:51 am 09:51 Cloudy with Light Rain 66 19 59 15 78 78 W 14 22 29.62 1003 10 16.0934 0 0.0254
9:53 am 09:53 Cloudy with Light Rain 65 18.3 59 15 81 81 W 13 20 29.6 1003 10 16.0934 0 0.0254
10:00 am 10:00 Cloudy with Light Rain 64 18 59 15 83 83 W 14 22 29.62 1003 10 16.0934 0 0
10:53 am 10:53 Cloudy with Rain 64 17.8 61 16.1 90 90 SW 18 30 29.62 1003 3 4.82802 0.01 0.254
11:37 am 11:37 Mostly Cloudy 67 19.4 64 17.8 91 91 SW 12 19 29.65 1004 10 16.0934 0.04 1.016
11:53 am 11:53 Mostly Cloudy 67 19.4 63 17.2 87 87 SW 15 24 29.62 1003 10 16.0934 0.04 1.016
12:10 pm 12:10 Mostly Cloudy 69 20.6 63 17.2 81 81 SW 18 30 29.62 1003 10 16.0934 0 0
12:53 pm 12:53 Mostly Sunny 70 21.1 62 16.7 76 76 SW 17 28 29.62 1003 10 16.0934 0 0
1:53 pm 13:53 Mostly Cloudy 69 20.6 63 17.2 81 81 WSW 15 24 29.65 1004 10 16.0934 0 0.0254
2:53 pm 14:53 Mostly Cloudy 69 20.6 58 14.4 68 68 W 16 26 29.68 1005 10 16.0934 0 0
3:53 pm 15:53 Mostly Cloudy 67 19.4 55 12.8 66 66 W 16 26 29.72 1007 10 16.0934 0 0
4:53 pm 16:53 Mostly Sunny 65 18.3 52 11.1 63 63 W 17 28 29.75 1007 10 16.0934 0 0
5:53 pm 17:53 Partly Cloudy 64 17.8 50 10 60 60 WSW 13 20 29.78 1009 10 16.0934 0 0
6:53 pm 18:53 Mostly Cloudy 61 16.1 49 9.4 65 65 WSW 13 20 29.8 1009 10 16.0934 0 0
7:53 pm 19:53 Mostly Sunny 61 16.1 48 8.9 63 63 W 9 15 29.81 1010 10 16.0934 0 0
8:53 pm 20:53 Clear 57 13.9 49 9.4 74 74 WSW 8 13 29.83 1010 10 16.0934 0 0
9:53 pm 21:53 Partly Cloudy 53 11.7 49 9.4 86 86 SW 5 7 29.87 1012 10 16.0934 0 0
10:53 pm 22:53 Clear 49 9.4 49 9.4 100 100 SSW 5 7 29.89 1012 10 16.0934 0 0
11:53 pm 23:53 Clear 50 10 49 9.4 96 96 Calm 29.89 1012 10 16.0934 0 0

Powered by AerisWeather